Weather History for KALW - November, 2012

Change the Weather History Date:

Wednesday, November 14, 2012

  Actual Average Record
Temperature  
Mean Temperature 42 °F -  
Max Temperature 46 °F 47 °F 70 °F (1953)
Min Temperature 37 °F 35 °F 0 °F (1955)
Degree Days  
Heating Degree Days 24    
Moisture  
Dew Point 40 °F    
Average Humidity 93    
Maximum Humidity 100    
Minimum Humidity 87    
Precipitation  
Precipitation 0.02 in - - ()
Sea Level Pressure  
Sea Level Pressure 30.27 in    
Wind  
Wind Speed 3 mph (NNW)    
Max Wind Speed 8 mph    
Max Gust Speed -    
Visibility 3 miles    
Events Fog , Rain    
Averages and records for this station are not official NWS values.
T = Trace of Precipitation, MM = Missing Value Source: NWS Daily Summary

Daily Weather History Graph

Daily Weather History Graph

Search for Another Location

Airport or City:

Trip Planner

Search our weather history database for the weather conditions in past years. The results will help you decide how hot, cold, wet, or windy it might be!

Date:

Astronomy

Nov. 14, 2012 Rise Set
Actual Time 6:53 AM PST 4:21 PM PST
Civil Twilight 6:20 AM PST 4:54 PM PST
Nautical Twilight 5:44 AM PST 5:30 PM PST
Astronomical Twilight 5:09 AM PST 6:05 PM PST
Moon 7:51 AM PST (11/14) 5:11 PM PST (11/14)
Length of Visible Light 10h 33m
Length of Day
9h 28m
New Moon, 1% of the Moon is Illuminated
Nov 14
New Moon
Nov 20
First Quarter
Nov 28
Full
Dec 6
Last Quarter
Dec 13
New

Hourly Weather History & Observations

Time (PST) Temp. Windchill Dew Point Humidity Pressure Visibility Wind Dir Wind Speed Gust Speed Precip Events Conditions
12:03 AM 39.2 °F 33.6 °F 37.4 °F 93% 30.21 in 0.2 mi West 8.1 mph - 0.00 in Fog , Rain Light Rain
12:53 AM 39.0 °F 36.8 °F 37.9 °F 96% 30.25 in 0.2 mi SW 3.5 mph - 0.00 in Fog Fog
1:53 AM 39.0 °F 36.8 °F 39.0 °F 100% 30.25 in 0.2 mi South 3.5 mph - N/A Fog Fog
2:08 AM 39.2 °F 37.0 °F 39.2 °F 100% 30.22 in 0.2 mi South 3.5 mph - N/A Fog Fog
2:53 AM 39.0 °F 35.7 °F 37.9 °F 96% 30.24 in 0.2 mi SSE 4.6 mph - N/A Fog Fog
3:04 AM 39.2 °F 37.0 °F 37.4 °F 93% 30.21 in 0.2 mi SSE 3.5 mph - N/A Fog Fog
3:33 AM 39.2 °F - 37.4 °F 93% 30.21 in 0.8 mi Calm Calm - N/A   Mist
3:48 AM 39.2 °F - 37.4 °F 93% 30.21 in 2.0 mi Calm Calm - N/A   Overcast
3:49 AM 39.0 °F - 37.9 °F 96% 30.24 in 2.0 mi Calm Calm - N/A   Overcast
3:56 AM 39.2 °F - 37.4 °F 93% 30.21 in 1.8 mi Calm Calm - N/A   Overcast
4:03 AM 39.2 °F - 37.4 °F 93% 30.21 in 3.0 mi Calm Calm - N/A   Overcast
4:10 AM 39.2 °F - 37.4 °F 93% 30.21 in 2.5 mi Calm Calm - N/A   Overcast
4:21 AM 39.2 °F 35.9 °F 37.4 °F 93% 30.21 in 4.0 mi ESE 4.6 mph - N/A   Overcast
4:53 AM 39.0 °F 35.7 °F 37.9 °F 96% 30.23 in 5.0 mi ESE 4.6 mph - N/A   Overcast
5:00 AM 39.2 °F - 37.4 °F 93% 30.21 in 6.0 mi Calm Calm - N/A   Mostly Cloudy
5:53 AM 37.9 °F - 37.0 °F 97% 30.24 in 3.0 mi Calm Calm - N/A   Overcast
6:24 AM 39.2 °F 35.9 °F 37.4 °F 93% 30.22 in 1.8 mi NNE 4.6 mph - N/A   Overcast
6:38 AM 39.2 °F - 37.4 °F 93% 30.23 in 0.5 mi Calm Calm - N/A Fog Fog
6:53 AM 37.9 °F 34.4 °F 37.0 °F 97% 30.26 in 1.0 mi North 4.6 mph - N/A   Overcast
7:19 AM 39.2 °F 34.2 °F 37.4 °F 93% 30.24 in 2.5 mi NNE 6.9 mph - N/A   Overcast
7:53 AM 41.0 °F 38.0 °F 39.0 °F 93% 30.28 in 2.5 mi North 4.6 mph - N/A   Overcast
8:30 AM 42.8 °F - 39.2 °F 87% 30.27 in 2.0 mi Calm Calm - 0.00 in   Overcast
8:39 AM 42.8 °F - 39.2 °F 87% 30.27 in 2.0 mi Calm Calm - 0.00 in Rain Light Rain
8:53 AM 42.1 °F - 41.0 °F 96% 30.30 in 1.5 mi Calm Calm - 0.00 in Rain Light Rain
9:17 AM 42.8 °F - 41.0 °F 93% 30.27 in 1.5 mi Calm Calm - 0.00 in Rain Light Rain
9:53 AM 43.0 °F - 41.0 °F 93% 30.30 in 1.5 mi Calm Calm - 0.01 in Rain Light Rain
10:00 AM 44.6 °F - 41.0 °F 87% 30.27 in 3.0 mi Calm Calm - 0.00 in Rain Light Rain
10:53 AM 44.1 °F 42.5 °F 42.1 °F 93% 30.30 in 3.0 mi ENE 3.5 mph - 0.01 in Rain Light Rain
11:53 AM 46.0 °F 44.8 °F 44.1 °F 93% 30.30 in 4.0 mi Variable 3.5 mph - 0.00 in   Mostly Cloudy
12:21 PM 46.4 °F 42.9 °F 44.6 °F 93% 30.28 in 2.5 mi NW 6.9 mph - N/A   Scattered Clouds
12:36 PM 46.4 °F 42.4 °F 44.6 °F 93% 30.28 in 2.5 mi WNW 8.1 mph - N/A   Mostly Cloudy
12:46 PM 46.4 °F 42.4 °F 44.6 °F 93% 30.28 in 4.0 mi WNW 8.1 mph - N/A   Overcast
12:53 PM 46.0 °F 43.9 °F 43.0 °F 89% 30.31 in 4.0 mi NW 4.6 mph - N/A   Overcast
1:53 PM 46.0 °F - 43.0 °F 89% 30.31 in 4.0 mi Calm Calm - N/A   Overcast
2:53 PM 46.0 °F 43.9 °F 43.0 °F 89% 30.31 in 4.0 mi West 4.6 mph - N/A   Overcast
3:53 PM 45.0 °F 43.5 °F 42.1 °F 90% 30.31 in 4.0 mi West 3.5 mph - N/A   Overcast
4:53 PM 45.0 °F 43.5 °F 42.1 °F 90% 30.32 in 5.0 mi NW 3.5 mph - N/A   Overcast
5:53 PM 44.1 °F 41.5 °F 42.1 °F 93% 30.33 in 5.0 mi North 4.6 mph - N/A   Overcast
6:53 PM 44.1 °F 40.8 °F 41.0 °F 89% 30.34 in 5.0 mi North 5.8 mph - N/A   Overcast
7:53 PM 44.1 °F 42.5 °F 42.1 °F 93% 30.34 in 5.0 mi NNE 3.5 mph - N/A   Overcast
8:53 PM 44.1 °F 41.5 °F 42.1 °F 93% 30.34 in 4.0 mi NW 4.6 mph - N/A   Overcast
9:53 PM 43.0 °F 40.3 °F 41.0 °F 93% 30.35 in 4.0 mi North 4.6 mph - N/A   Overcast
10:34 PM 42.8 °F 41.1 °F 41.0 °F 93% 30.32 in 2.5 mi North 3.5 mph - N/A   Overcast
10:53 PM 42.1 °F 40.2 °F 41.0 °F 96% 30.35 in 2.5 mi North 3.5 mph - N/A   Overcast
11:14 PM 42.8 °F - 41.0 °F 93% 30.32 in 2.5 mi Calm Calm - N/A   Overcast
11:38 PM 42.8 °F - 41.0 °F 93% 30.32 in 2.0 mi Calm Calm - N/A   Overcast
11:53 PM 42.1 °F - 41.0 °F 96% 30.34 in 2.0 mi Calm Calm - N/A   Overcast